This is the latest recevied weather packets stored in our database for station/object N4JTC. If no packets are shown the sender has not sent any weather packets the latest 10 day(s).
| Time | Temp. | Humidity | Pressure | Rain* | Wind** | Luminosity | Snow |
|---|---|---|---|---|---|---|---|
| 1778070904 | 22.78° C | 95% | 1016 hPa | 0 mm | - | 123 W/m² | - |
| 1778070603 | 22.22° C | 95% | 1016 hPa | 0 mm | - | 133 W/m² | - |
| 1778070302 | 22.22° C | 95% | 1015.6 hPa | 0 mm | - | 101 W/m² | - |
| 1778070003 | 21.67° C | 95% | 1015.7 hPa | 0 mm | - | 97 W/m² | - |
| 1778069703 | 21.67° C | 95% | 1015.5 hPa | 0 mm | - | 92 W/m² | - |
| 1778069403 | 21.67° C | 95% | 1015.5 hPa | 0 mm | - | 80 W/m² | - |
| 1778069103 | 21.67° C | 95% | 1015.2 hPa | 0 mm | - | 57 W/m² | - |
| 1778068804 | 21.67° C | 95% | 1015.1 hPa | 0 mm | - | 70 W/m² | - |
| 1778068503 | 21.67° C | 95% | 1015.2 hPa | 0 mm | - | 58 W/m² | - |
| 1778068203 | 21.67° C | 94% | 1015.1 hPa | 0 mm | - | 53 W/m² | - |
| 1778067903 | 21.67° C | 95% | 1015.2 hPa | 0 mm | - | 46 W/m² | - |
| 1778067604 | 22.22° C | 95% | 1015 hPa | 0 mm | - | 36 W/m² | - |
| 1778067303 | 22.22° C | 95% | 1015 hPa | 0 mm | - | 29 W/m² | - |
| 1778067003 | 22.22° C | 95% | 1014.7 hPa | 0 mm | - | 23 W/m² | - |
| 1778066704 | 22.22° C | 95% | 1014.7 hPa | 0 mm | - | 19 W/m² | - |
| 1778066104 | 22.22° C | 95% | 1014.7 hPa | 0 mm | - | 12 W/m² | - |
| 1778065804 | 22.22° C | 95% | 1014.7 hPa | 0 mm | - | 9 W/m² | - |
| 1778065504 | 21.67° C | 95% | 1014.3 hPa | 0 mm | - | 4 W/m² | - |
| 1778065204 | 21.67° C | 95% | 1014.7 hPa | 0 mm | - | 1 W/m² | - |
| 1778064904 | 21.67° C | 95% | 1014.7 hPa | 0 mm | - | 0 W/m² | - |
| 1778064603 | 22.22° C | 95% | 1014.4 hPa | 0 mm | - | 0 W/m² | - |
| 1778064307 | 22.22° C | 95% | 1014.6 hPa | 0 mm | - | 0 W/m² | - |
| 1778064003 | 22.22° C | 95% | 1014.5 hPa | 0 mm | - | 0 W/m² | - |
| 1778063703 | 22.22° C | 95% | 1014.4 hPa | 0 mm | - | 0 W/m² | - |
| 1778063403 | 22.22° C | 95% | 1014.4 hPa | 0 mm | - | 0 W/m² | - |
* Rain latest hour (hover to see other rain measurements)
** Current wind speed in m/s (hover to see current wind gust speed)